Location: Jangalapalle
(16.8036°N, 80.6370°E)
Time: 12:32:51
(UTC+00:00)

Cosmos 2366 rocket - Pass Details

Date: 05 August 2024
Orbit: 955 x 995 km, 82.9° (Epoch: 08 September)

Event Time Altitude Azimuth Distance (km) Brightness Sun altitude
Rises 13:40:26 0° 176° (S) 3,622 6.7 -8.2°
Reaches altitude 10° 13:42:57 10° 173° (S) 2,676 6.0 -8.8°
Maximum altitude 13:48:58 64° 92° (E) 1,053 4.0 -10.1°
Drops below altitude 10° 13:55:01 10° 12° (NNE) 2,685 6.4 -11.5°
Sets 13:57:33 0° 10° (N) 3,636 7.2 -12.0°
